TimeEST,TemperatureF,Dew PointF,Humidity,Sea Level PressureIn,VisibilityMPH,Wind Direction,Wind SpeedMPH,Gust SpeedMPH,PrecipitationIn,Events,Conditions,WindDirDegrees,DateUTC
12:39 AM,35.6,28.4,75,30.25,10.0,Calm,Calm,-,N/A,,Overcast,0,2013-02-23 05:39:00
12:54 AM,35.1,30.0,82,30.24,8.0,Calm,Calm,-,N/A,,Overcast,0,2013-02-23 05:54:00
1:21 AM,33.8,32.0,93,30.22,4.0,East,3.5,-,N/A,,Overcast,80,2013-02-23 06:21:00
1:32 AM,33.8,32.0,93,30.22,3.0,Calm,Calm,-,N/A,,Overcast,0,2013-02-23 06:32:00
1:47 AM,33.8,33.8,100,30.21,3.0,East,3.5,-,N/A,,Overcast,90,2013-02-23 06:47:00
1:54 AM,34.0,33.1,96,30.21,3.0,East,3.5,-,N/A,,Overcast,90,2013-02-23 06:54:00
2:23 AM,33.8,33.8,100,30.20,2.5,Calm,Calm,-,N/A,,Overcast,0,2013-02-23 07:23:00
2:31 AM,33.8,33.8,100,30.19,2.5,Calm,Calm,-,N/A,,Overcast,0,2013-02-23 07:31:00
2:54 AM,34.0,33.1,96,30.19,2.5,Calm,Calm,-,N/A,,Overcast,0,2013-02-23 07:54:00
3:38 AM,33.8,33.8,100,30.16,1.8,Calm,Calm,-,0.01,,Overcast,0,2013-02-23 08:38:00
3:54 AM,34.0,33.1,96,30.16,2.0,Calm,Calm,-,0.01,,Overcast,0,2013-02-23 08:54:00
4:54 AM,34.0,33.1,96,30.14,2.0,ENE,3.5,-,N/A,,Overcast,60,2013-02-23 09:54:00
5:24 AM,33.8,33.8,100,30.13,3.0,Calm,Calm,-,N/A,,Overcast,0,2013-02-23 10:24:00
5:54 AM,35.1,34.0,96,30.13,2.5,Calm,Calm,-,N/A,,Overcast,0,2013-02-23 10:54:00
6:54 AM,35.1,35.1,100,30.11,2.5,Calm,Calm,-,N/A,,Overcast,0,2013-02-23 11:54:00
7:13 AM,35.6,35.6,100,30.11,1.5,Calm,Calm,-,N/A,,Overcast,0,2013-02-23 12:13:00
7:54 AM,36.0,36.0,100,30.10,1.2,Calm,Calm,-,0.01,Rain,Light Rain,0,2013-02-23 12:54:00
8:54 AM,37.0,37.0,100,30.08,1.0,Calm,Calm,-,0.00,Rain,Light Rain,0,2013-02-23 13:54:00
9:54 AM,37.9,37.9,100,30.06,1.2,NE,3.5,-,0.01,Rain,Light Rain,50,2013-02-23 14:54:00
10:29 AM,39.2,39.2,100,30.05,2.0,Calm,Calm,-,0.00,,Overcast,0,2013-02-23 15:29:00
10:54 AM,39.9,39.0,97,30.04,2.5,NE,3.5,-,0.00,Rain,Light Rain,50,2013-02-23 15:54:00
11:42 AM,41.0,39.2,93,30.02,1.5,East,4.6,-,0.00,,Overcast,80,2013-02-23 16:42:00
11:54 AM,42.1,41.0,96,30.01,1.8,East,3.5,-,0.01,Rain,Light Rain,90,2013-02-23 16:54:00
12:05 PM,42.8,41.0,93,30.00,2.5,ENE,3.5,-,0.00,Rain,Light Rain,70,2013-02-23 17:05:00
12:29 PM,42.8,42.8,100,29.98,4.0,East,4.6,-,0.00,,Overcast,80,2013-02-23 17:29:00
12:54 PM,43.0,42.1,97,29.98,7.0,NNE,4.6,-,0.00,,Overcast,30,2013-02-23 17:54:00
1:26 PM,44.6,42.8,93,29.97,2.0,NNE,4.6,-,N/A,,Overcast,20,2013-02-23 18:26:00
1:34 PM,44.6,42.8,93,29.96,1.2,NNE,4.6,-,0.00,Rain,Light Rain,20,2013-02-23 18:34:00
1:54 PM,44.1,43.0,96,29.95,1.5,NNE,5.8,-,0.00,Rain,Light Rain,30,2013-02-23 18:54:00
2:07 PM,44.6,42.8,93,29.95,2.0,NNE,5.8,-,0.00,,Overcast,30,2013-02-23 19:07:00
2:54 PM,44.1,42.1,93,29.94,2.0,NNE,5.8,-,0.01,,Overcast,20,2013-02-23 19:54:00
3:45 PM,44.6,42.8,93,29.91,3.0,NE,5.8,-,N/A,,Overcast,50,2013-02-23 20:45:00
3:54 PM,44.1,42.1,93,29.91,4.0,NE,9.2,-,N/A,,Overcast,50,2013-02-23 20:54:00
4:54 PM,43.0,42.1,97,29.88,7.0,NE,5.8,-,N/A,,Overcast,50,2013-02-23 21:54:00
5:54 PM,43.0,41.0,93,29.88,10.0,NE,5.8,-,N/A,,Overcast,50,2013-02-23 22:54:00
6:54 PM,42.1,41.0,96,29.87,3.0,ENE,5.8,-,N/A,,Overcast,70,2013-02-23 23:54:00
7:54 PM,42.1,39.9,92,29.88,4.0,NE,4.6,-,N/A,,Overcast,50,2013-02-24 00:54:00
8:54 PM,41.0,39.9,96,29.86,2.5,NE,4.6,-,N/A,,Overcast,40,2013-02-24 01:54:00
9:39 PM,39.2,39.2,100,29.85,3.0,ENE,3.5,-,0.01,,Overcast,60,2013-02-24 02:39:00
9:54 PM,39.9,39.9,100,29.85,3.0,Calm,Calm,-,0.01,,Overcast,0,2013-02-24 02:54:00
10:08 PM,39.2,39.2,100,29.84,2.5,Calm,Calm,-,N/A,,Overcast,0,2013-02-24 03:08:00
10:39 PM,39.2,39.2,100,29.85,3.0,Calm,Calm,-,N/A,,Overcast,0,2013-02-24 03:39:00
10:54 PM,39.9,39.0,97,29.84,2.5,NNE,3.5,-,N/A,,Overcast,20,2013-02-24 03:54:00
11:15 PM,39.2,37.4,93,29.82,3.0,NNE,5.8,-,N/A,,Overcast,20,2013-02-24 04:15:00
11:54 PM,39.0,37.9,96,29.83,5.0,Calm,Calm,-,N/A,,Overcast,0,2013-02-24 04:54:00